N5VKM Weather Reports


time (UTC)temp
C
wind
direction
speed
KPH
gust
KPH
rain 1hr
cm
rain 24hr
cm
rain mn
cm
humidity
%
barometer
mb
20260506002530 23 338 0.0 0.0 0.00 0.00 0.00 72 1005.7
20260506002041 23 338 0.0 0.0 0.00 0.00 0.00 71 1005.9
20260506001531 23 331 0.0 0.0 0.00 0.00 0.00 70 1005.6
20260506001040 23 337 0.0 0.0 0.00 0.00 0.00 70 1005.6
20260506000546 23 336 0.0 0.0 0.00 0.00 0.00 70 1005.7
20260506000035 24 337 0.0 0.0 0.00 0.00 0.00 71 1005.6
20260505235549 24 338 0.0 0.0 0.00 0.00 0.00 70 1005.6
20260505235042 24 337 0.0 0.0 0.00 0.00 0.00 70 1005.3
20260505234548 24 338 0.0 0.0 0.00 0.00 0.00 69 1005.1
20260505234041 25 338 0.0 0.0 0.00 0.00 0.00 69 1005.0
20260505233528 25 337 0.0 0.0 0.00 0.00 0.00 67 1005.0
20260505233039 26 338 0.0 0.0 0.00 0.00 0.00 66 1005.0
20260505232609 26 337 0.0 0.0 0.00 0.00 0.00 64 1005.2
20260505232037 26 337 0.0 0.0 0.00 0.00 0.00 64 1005.0
20260505231531 26 337 0.0 0.0 0.00 0.00 0.00 63 1004.8
20260505231058 27 337 0.0 0.0 0.00 0.00 0.00 62 1004.8
20260505230528 27 337 0.0 0.0 0.00 0.00 0.00 60 1004.5
20260505230038 28 336 0.0 0.0 0.00 0.00 0.00 58 1004.3
20260505225532 28 337 0.0 0.0 0.00 0.00 0.00 57 1004.2
20260505225046 28 336 0.0 0.0 0.00 0.00 0.00 55 1004.3
20260505224543 28 336 0.0 0.0 0.00 0.00 0.00 55 1004.3
20260505224049 28 337 0.0 0.0 0.00 0.00 0.00 54 1004.2
20260505223536 29 337 0.0 0.0 0.00 0.00 0.00 54 1004.1
20260505223027 29 336 0.0 0.0 0.00 0.00 0.00 53 1004.1
20260505222539 30 336 0.0 0.0 0.00 0.00 0.00 52 1004.0
20260505222046 30 336 0.0 0.0 0.00 0.00 0.00 52 1003.8
20260505221537 30 337 0.0 0.0 0.00 0.00 0.00 52 1003.7
20260505221028 30 336 0.0 0.0 0.00 0.00 0.00 53 1003.7
20260505220558 30 336 0.0 0.0 0.00 0.00 0.00 54 1003.8
20260505220035 30 334 0.0 0.0 0.00 0.00 0.00 58 1003.7
20260505215543 31 334 0.0 0.0 0.00 0.00 0.00 57 1003.7
20260505215037 31 334 0.0 0.0 0.00 0.00 0.00 57 1003.7
20260505214536 31 333 0.0 0.0 0.00 0.00 0.00 56 1003.9
20260505214045 31 335 0.0 0.0 0.00 0.00 0.00 57 1003.9
20260505213533 31 333 0.0 0.0 0.00 0.00 0.00 57 1003.9
20260505213040 31 334 0.0 0.0 0.00 0.00 0.00 58 1004.0
20260505212531 31 334 0.0 0.0 0.00 0.00 0.00 59 1003.9
20260505212043 31 333 0.0 0.0 0.00 0.00 0.00 58 1004.0
20260505211531 31 335 0.0 0.0 0.00 0.00 0.00 58 1004.0
20260505211039 31 334 0.0 0.0 0.00 0.00 0.00 57 1004.2
20260505210550 31 333 0.0 0.0 0.00 0.00 0.00 58 1004.2
20260505210036 31 335 0.0 0.0 0.00 0.00 0.00 58 1004.3
20260505205548 31 334 0.0 0.0 0.00 0.00 0.00 59 1004.1
20260505205038 31 334 0.0 0.0 0.00 0.00 0.00 60 1004.2
20260505204532 30 334 0.0 0.0 0.00 0.00 0.00 60 1004.4
20260505204040 30 334 0.0 0.0 0.00 0.00 0.00 61 1004.4
20260505203533 30 334 0.0 0.0 0.00 0.00 0.00 60 1004.3
20260505203042 30 334 0.0 0.0 0.00 0.00 0.00 60 1004.5
20260505202528 30 333 0.0 0.0 0.00 0.00 0.00 60 1004.6
20260505202040 30 335 0.0 0.0 0.00 0.00 0.00 60 1004.6
20260505201555 30 335 0.0 0.0 0.00 0.00 0.00 61 1004.6
20260505201042 30 335 0.0 0.0 0.00 0.00 0.00 60 1004.6
20260505200537 30 335 0.0 0.0 0.00 0.00 0.00 61 1004.5
20260505200026 30 329 0.0 0.0 0.00 0.00 0.00 61 1004.6
20260505195540 30 334 0.0 0.0 0.00 0.00 0.00 60 1004.6
20260505195110 30 336 0.0 0.0 0.00 0.00 0.00 60 1004.7
20260505194600 30 333 0.0 0.0 0.00 0.00 0.00 59 1004.7
20260505194048 30 334 0.0 0.0 0.00 0.00 0.00 61 1004.7
20260505193545 30 334 0.0 0.0 0.00 0.00 0.00 60 1004.6
20260505193033 30 335 0.0 0.0 0.00 0.00 0.00 63 1004.5
20260505192542 30 335 0.0 0.0 0.00 0.00 0.00 61 1004.5
20260505192032 29 333 0.0 0.0 0.00 0.00 0.00 63 1004.6
20260505191610 29 335 0.0 0.0 0.00 0.00 0.00 64 1004.5
20260505191101 29 333 0.0 0.0 0.00 0.00 0.00 65 1004.4
20260505190548 29 334 0.0 0.0 0.00 0.00 0.00 66 1004.4
20260505190042 29 333 0.0 0.0 0.00 0.00 0.00 67 1004.4
20260505185531 29 336 0.0 0.0 0.00 0.00 0.00 67 1004.4
20260505185037 29 333 0.0 0.0 0.00 0.00 0.00 67 1004.6
20260505184545 28 333 0.0 0.0 0.00 0.00 0.00 68 1004.7
20260505184042 28 335 0.0 0.0 0.00 0.00 0.00 69 1004.6
20260505183531 28 335 0.0 0.0 0.00 0.00 0.00 69 1004.7
20260505183037 28 330 0.0 0.0 0.00 0.00 0.00 70 1004.6
20260505182535 28 334 0.0 0.0 0.00 0.00 0.00 70 1004.7
20260505182043 27 333 0.0 0.0 0.00 0.00 0.00 70 1004.8
20260505181536 27 335 0.0 0.0 0.00 0.00 0.00 70 1004.9
20260505181044 28 335 0.0 0.0 0.00 0.00 0.00 69 1004.8
20260505180532 28 334 0.0 0.0 0.00 0.00 0.00 69 1004.8
20260505180039 28 336 0.0 0.0 0.00 0.00 0.00 70 1004.7
20260505175530 27 333 0.0 0.0 0.00 0.00 0.00 70 1004.7
20260505175043 27 335 0.0 0.0 0.00 0.00 0.00 72 1004.8
20260505174531 27 335 0.0 0.0 0.00 0.00 0.00 71 1004.7
20260505174038 27 333 0.0 0.0 0.00 0.00 0.00 71 1004.8
20260505173545 27 335 0.0 0.0 0.00 0.00 0.00 72 1004.8
20260505173039 27 335 0.0 0.0 0.00 0.00 0.00 73 1004.7
20260505172529 26 334 0.0 0.0 0.00 0.00 0.00 74 1004.7
20260505172049 26 334 0.0 0.0 0.00 0.00 0.00 74 1004.7
20260505171544 26 336 0.0 0.0 0.00 0.00 0.00 74 1004.9
20260505171035 26 334 0.0 0.0 0.00 0.00 0.00 75 1004.6
20260505170544 26 336 0.0 0.0 0.00 0.00 0.00 75 1005.2
20260505170051 26 335 0.0 0.0 0.00 0.00 0.00 75 1004.8
20260505165602 26 336 0.0 0.0 0.00 0.00 0.00 75 1004.9
20260505165033 25 336 0.0 0.0 0.00 0.00 0.00 76 1004.8
20260505164541 25 334 0.0 0.0 0.00 0.00 0.00 76 1004.7
20260505164027 25 336 0.0 0.0 0.00 0.00 0.00 76 1005.3
20260505163537 25 336 0.0 0.0 0.00 0.00 0.00 75 1004.2
20260505163029 25 335 0.0 0.0 0.00 0.00 0.00 76 1004.7
20260505162542 25 335 0.0 0.0 0.00 0.00 0.00 75 1005.3
20260505162031 25 336 0.0 0.0 0.00 0.00 0.00 75 1005.1
20260505161541 25 336 0.0 0.0 0.00 0.00 0.00 75 1004.6
20260505161055 25 336 0.0 0.0 0.00 0.00 0.00 75 1004.7
20260505160541 25 335 0.0 0.0 0.00 0.00 0.00 75 1004.6
20260505153032 25 336 0.0 0.0 0.00 0.00 0.00 78 1004.4
20260505152559 25 336 0.0 0.0 0.00 0.00 0.00 78 1004.4
20260505152047 25 335 0.0 0.0 0.00 0.00 0.00 78 1004.7
20260505151536 25 335 0.0 0.0 0.00 0.00 0.00 78 1004.8
20260505151030 25 336 0.0 0.0 0.00 0.00 0.00 79 1004.7
20260505150544 24 336 0.0 0.0 0.00 0.00 0.00 79 1004.8
20260505140532 23 336 0.0 0.0 0.00 0.00 0.00 82 1004.5
20260505125041 22 335 0.0 0.0 0.00 0.00 0.00 85 1004.4
20260505124531 22 336 0.0 0.0 0.00 0.00 0.00 85 1004.3
20260505124105 22 336 0.0 0.0 0.00 0.00 0.00 85 1004.1
20260505123533 22 336 0.0 0.0 0.00 0.00 0.00 85 1004.1
20260505123026 22 336 0.0 0.0 0.00 0.00 0.00 86 1004.2
20260505122600 21 336 0.0 0.0 0.00 0.00 0.00 86 1004.2
20260505122032 21 334 0.0 0.0 0.00 0.00 0.00 86 1004.1
20260505121546 21 336 0.0 0.0 0.00 0.00 0.00 87 1004.1
20260505121044 21 336 0.0 0.0 0.00 0.00 0.00 87 1004.0
20260505120551 21 335 0.0 0.0 0.00 0.00 0.00 87 1004.0
20260505120043 21 334 0.0 0.0 0.00 0.00 0.00 86 1003.9
20260505115530 21 336 0.0 0.0 0.00 0.00 0.00 86 1003.9
20260505115037 21 336 0.0 0.0 0.00 0.00 0.00 86 1003.9
20260505114527 21 334 0.0 0.0 0.00 0.00 0.00 86 1003.8
20260505114038 21 336 0.0 0.0 0.00 0.00 0.00 86 1003.7
20260505113528 21 336 0.0 0.0 0.00 0.00 0.00 86 1003.8
20260505113059 21 335 0.0 0.0 0.00 0.00 0.00 86 1003.8
20260505112531 21 336 0.0 0.0 0.00 0.00 0.00 85 1003.8
20260505112030 21 336 0.0 0.0 0.00 0.00 0.00 85 1003.7
20260505111553 21 336 0.0 0.0 0.00 0.00 0.00 85 1003.7
20260505111043 21 336 0.0 0.0 0.00 0.00 0.00 85 1003.6
20260505110536 21 335 0.0 0.0 0.00 0.00 0.00 85 1003.6
20260505102042 21 336 0.0 0.0 0.00 0.00 0.00 86 1003.8
20260505101535 21 336 0.0 0.0 0.00 0.00 0.00 86 1003.7
20260505101042 21 336 0.0 0.0 0.00 0.00 0.00 86 1003.8
20260505100535 21 334 0.0 0.0 0.00 0.00 0.00 86 1003.7
20260505100047 21 335 0.0 0.0 0.00 0.00 0.00 86 1003.7
20260505095534 21 336 0.0 0.0 0.00 0.00 0.00 86 1003.7
20260505095031 21 335 0.0 0.0 0.00 0.00 0.00 86 1003.8
20260505094659 21 336 0.0 0.0 0.00 0.00 0.00 86 1003.8
20260505094032 21 336 0.0 0.0 0.00 0.00 0.00 86 1003.7
20260505093537 21 334 0.0 0.0 0.00 0.00 0.00 86 1003.9
20260505093047 21 334 0.0 0.0 0.00 0.00 0.00 86 1004.0
20260505092540 21 336 0.0 0.0 0.00 0.00 0.00 86 1004.1
20260505092031 21 336 0.0 0.0 0.00 0.00 0.00 86 1004.0
20260505091558 21 336 0.0 0.0 0.00 0.00 0.00 86 1004.1
20260505091047 21 336 0.0 0.0 0.00 0.00 0.00 86 1004.3
20260505090537 21 336 0.0 0.0 0.00 0.00 0.00 86 1004.1
20260505090031 21 336 0.0 0.0 0.00 0.00 0.00 86 1004.2
20260505085605 21 336 0.0 0.0 0.00 0.00 0.00 86 1004.2
20260505085035 21 335 0.0 0.0 0.00 0.00 0.00 86 1004.1
20260505084546 21 336 0.0 0.0 0.00 0.00 0.00 85 1004.1
20260505084038 21 335 0.0 0.0 0.00 0.00 0.00 85 1004.1
20260505083545 21 334 0.0 0.0 0.00 0.00 0.00 85 1004.1
20260505083030 21 336 0.0 0.0 0.00 0.00 0.00 85 1004.2
20260505082546 21 334 0.0 0.0 0.00 0.00 0.00 85 1004.1
20260505082053 21 336 0.0 0.0 0.00 0.00 0.00 84 1004.1
20260505081546 21 335 0.0 0.0 0.00 0.00 0.00 84 1004.2
20260505081036 21 336 0.0 0.0 0.00 0.00 0.00 84 1004.3
20260505080531 21 336 0.0 0.0 0.00 0.00 0.00 84 1004.3
20260505080041 21 336 0.0 0.0 0.00 0.00 0.00 83 1004.3
20260505075532 21 336 0.0 0.0 0.00 0.00 0.00 83 1004.5
20260505075044 22 339 0.0 0.0 0.00 0.00 0.00 83 1004.4
20260505074537 22 337 0.0 0.0 0.00 0.00 0.00 83 1004.5
20260505074050 22 335 0.0 0.0 0.00 0.00 0.00 82 1004.6
20260505073539 22 335 0.0 0.0 0.00 0.00 0.00 82 1004.7
20260505073029 22 334 0.0 0.0 0.00 0.00 0.00 82 1004.7
20260505072603 22 335 0.0 0.0 0.00 0.00 0.00 81 1004.8
20260505072029 22 334 0.0 0.0 0.00 0.00 0.00 81 1004.9
20260505071541 22 336 0.0 0.0 0.00 0.00 0.00 81 1004.8
20260505071034 22 336 0.0 0.0 0.00 0.00 0.00 81 1004.8
20260505070548 22 335 0.0 0.0 0.00 0.00 0.00 81 1004.9
20260505070047 22 334 0.0 0.0 0.00 0.00 0.00 81 1005.0
20260505065538 22 336 0.0 0.0 0.00 0.00 0.00 80 1005.1
20260505065047 22 335 0.0 0.0 0.00 0.00 0.00 80 1005.2
20260505064554 22 335 0.0 0.0 0.00 0.00 0.00 80 1005.3
20260505064046 22 334 0.0 0.0 0.00 0.00 0.00 80 1005.3
20260505063534 22 336 0.0 0.0 0.00 0.00 0.00 80 1005.3
20260505063048 22 334 0.0 0.0 0.00 0.00 0.00 80 1005.4
20260505062536 22 336 0.0 0.0 0.00 0.00 0.00 79 1005.4
20260505062046 22 335 0.0 0.0 0.00 0.00 0.00 79 1005.4
20260505061533 22 336 0.0 0.0 0.00 0.00 0.00 79 1005.4
20260505061040 22 336 0.0 0.0 0.00 0.00 0.00 79 1005.4
20260505060528 22 334 0.0 0.0 0.00 0.00 0.00 79 1005.4
20260505060039 22 334 0.0 0.0 0.00 0.00 0.00 79 1005.3
20260505055532 22 336 0.0 0.0 0.00 0.00 0.00 79 1005.3
20260505055107 22 336 0.0 0.0 0.00 0.00 0.00 79 1005.3
20260505054559 22 333 0.0 0.0 0.00 0.00 0.00 79 1005.5
20260505054046 22 335 0.0 0.0 0.00 0.00 0.00 79 1005.6
20260505053537 22 335 0.0 0.0 0.00 0.00 0.00 78 1005.6
20260505053044 22 335 0.0 0.0 0.00 0.00 0.00 78 1005.6
20260505052537 22 332 0.0 0.0 0.00 0.00 0.00 78 1005.8
20260505052030 22 333 0.0 0.0 0.00 0.00 0.00 78 1005.9
20260505051536 22 334 0.0 0.0 0.00 0.00 0.00 77 1005.9
20260505051044 22 334 0.0 0.0 0.00 0.00 0.00 77 1006.0
20260505050537 22 334 0.0 0.0 0.00 0.00 0.00 77 1006.0
20260505041550 22 334 0.0 0.0 0.00 0.00 0.00 75 1006.0
20260505041036 22 332 0.0 0.0 0.00 0.00 0.00 75 1006.1
20260505040547 22 334 0.0 0.0 0.00 0.00 0.00 75 1006.1
20260505040039 22 333 0.0 0.0 0.00 0.00 0.00 75 1006.0
20260505035608 22 335 0.0 0.0 0.00 0.00 0.00 75 1006.0
20260505035035 22 335 0.0 0.0 0.00 0.00 0.00 74 1006.0
20260505034540 22 334 0.0 0.0 0.00 0.00 0.00 74 1006.1
20260505034032 23 334 0.0 0.0 0.00 0.00 0.00 74 1006.1
20260505033606 23 334 0.0 0.0 0.00 0.00 0.00 74 1006.2
20260505033033 23 334 0.0 0.0 0.00 0.00 0.00 74 1006.2
20260505032540 23 335 0.0 0.0 0.00 0.00 0.00 74 1006.3
20260505032037 23 333 0.0 0.0 0.00 0.00 0.00 74 1006.2
20260505031607 23 336 0.0 0.0 0.00 0.00 0.00 73 1006.2
20260505031037 23 335 0.0 0.0 0.00 0.00 0.00 73 1006.1
20260505030549 23 336 0.0 0.0 0.00 0.00 0.00 73 1006.1
20260505030037 23 335 0.0 0.0 0.00 0.00 0.00 72 1006.1
20260505025544 23 336 0.0 0.0 0.00 0.00 0.00 72 1006.1
20260505025036 23 334 0.0 0.0 0.00 0.00 0.00 72 1006.0
20260505024606 23 335 0.0 0.0 0.00 0.00 0.00 72 1006.0
20260505024037 23 334 0.0 0.0 0.00 0.00 0.00 72 1006.0
20260505023544 23 334 0.0 0.0 0.00 0.00 0.00 71 1006.0
20260505023037 23 336 0.0 0.0 0.00 0.00 0.00 71 1006.0
20260505022545 23 336 0.0 0.0 0.00 0.00 0.00 71 1006.0
20260505022056 23 334 0.0 0.0 0.00 0.00 0.00 71 1005.9
20260505021543 23 335 0.0 0.0 0.00 0.00 0.00 70 1005.9
20260505021055 23 334 0.0 0.0 0.00 0.00 0.00 70 1005.8
20260505020543 23 336 0.0 0.0 0.00 0.00 0.00 70 1005.9
20260505020031 23 335 0.0 0.0 0.00 0.00 0.00 70 1005.9
20260505015541 23 333 0.0 0.0 0.00 0.00 0.00 70 1005.8
20260505015029 23 336 0.0 0.0 0.00 0.00 0.00 70 1005.8
20260505014543 23 334 0.0 0.0 0.00 0.00 0.00 70 1005.8
20260505014031 23 335 0.0 0.0 0.00 0.00 0.00 69 1005.9
20260505013542 24 336 0.0 0.0 0.00 0.00 0.00 69 1005.9
20260505013030 24 333 0.0 0.0 0.00 0.00 0.00 69 1005.8
20260505012540 24 335 0.0 0.0 0.00 0.00 0.00 68 1005.9
20260505012034 24 335 0.0 0.0 0.00 0.00 0.00 68 1005.9
20260505011541 24 337 0.0 0.0 0.00 0.00 0.00 68 1005.8
20260505011033 24 336 0.0 0.0 0.00 0.00 0.00 68 1005.9
20260505010608 24 336 0.0 0.0 0.00 0.00 0.00 68 1005.9
20260505010050 24 334 0.0 0.0 0.00 0.00 0.00 68 1006.0
20260505005544 25 335 0.0 0.0 0.00 0.00 0.00 67 1005.9
20260505005050 25 334 0.0 0.0 0.00 0.00 0.00 66 1005.9
20260505004553 25 334 0.0 0.0 0.00 0.00 0.00 66 1005.9
20260505004056 25 333 0.0 0.0 0.00 0.00 0.00 65 1005.9
20260505003546 25 333 0.0 0.0 0.00 0.00 0.00 65 1006.0
20260505003040 25 335 0.0 0.0 0.00 0.00 0.00 64 1006.0